Location: Harburg
(48.7667°N, 10.6667°E)
Time: 03:11:30
(UTC+00:00)

CZ-2C R/B - Pass Details

Date: 18 September 2020
Orbit: 785 x 870 km, 98.2° (Epoch: 24 October)

Event Time Altitude Azimuth Distance (km) Brightness Sun altitude
Rises 19:15:59 0° 13° (NNE) 3,408 6.0 -18.8°
Reaches altitude 10° 19:18:20 10° 13° (NNE) 2,481 5.3 -19.1°
Maximum altitude 19:23:52 85° 286° (WNW) 868 2.7 -20.0°
Drops below altitude 10° 19:29:27 10° 198° (SSW) 2,503 5.0 -20.8°
Sets 19:31:50 0° 198° (SSW) 3,441 5.8 -21.1°
